CAPE
1054 1047 1103 1229 1324 1210 1257 1413 1416 1155 989 1021 659 839 925 800 706 641 1226 1175 1062 774 1061 1246 1039 736 471 13 0 0 0 0 0 0 1 29 0 0 0 0 0 0 0
1081 1250 1529 1543 1811 1765 1752 1695 1660 1749 1517 1291 1019 1007 1167 1067 1008 798 865 1365 1013 763 958 1094 887 834 602 120 0 0 0 0 0 0 0 0 0 0 0 0 0 0 0
1398 1302 1240 1517 1965 1908 2037 1962 1939 2144 1973 1516 1273 1101 1138 1219 1184 1173 1031 1113 1159 1109 1089 980 991 785 562 374 80 0 0 0 0 0 0 0 0 0 0 0 0 0 0
1496 1579 1572 1462 1573 1839 2166 2393 2286 2043 2309 1993 1435 1297 1178 1161 1223 1299 1193 1110 1162 1163 1225 1249 1034 871 634 416 249 65 0 0 0 0 0 0 0 0 0 0 0 0 0
1823 1786 1669 1713 1769 1983 2156 2383 2429 2301 2015 2414 1776 1423 1281 1276 1325 1396 1332 1249 1265 1182 1107 1209 1145 980 744 531 386 179 8 0 0 0 0 0 0 0 0 0 0 0 0
2109 2141 1739 1554 1822 2031 2211 2296 2409 2350 2198 2159 2320 1947 1737 1676 1655 1657 1657 1565 1424 1210 1151 1179 1300 1210 1058 821 562 333 79 0 0 0 0 0 10 0 0 0 0 0 0
1214 1880 1646 1490 1421 949 1437 2386 2607 2510 2422 2147 2375 2320 2093 1845 1354 1122 646 806 1521 1673 1542 1460 1426 1385 1183 1032 771 482 218 35 0 0 0 0 0 0 0 0 0 0 0
522 497 462 264 525 0 15 349 1094 1530 1614 1547 1439 1244 1314 1384 1173 613 376 121 13 79 1421 1707 1723 1535 1385 1185 937 703 335 48 0 0 0 0 0 0 0 0 0 0 0
226 147 14 9 46 2 54 112 59 294 966 1087 549 200 1 44 0 37 0 0 0 240 0 22 1690 1780 1516 1084 949 760 448 55 0 0 0 0 0 0 0 0 0 0 0
489 404 150 64 14 3 0 0 0 43 116 86 66 50 0 0 0 0 262 253 110 695 286 36 1099 1901 1584 993 968 690 465 174 0 0 0 0 0 0 0 0 0 0 0
377 634 1026 218 1 7 5 3 0 0 50 391 641 827 441 381 1072 1216 1284 1040 1057 1350 1211 1296 1641 1580 1523 1209 770 614 517 78 0 0 0 0 0 0 0 0 0 0 0
99 880 1211 1798 1818 881 735 1320 1563 1720 1877 1704 1531 1023 498 546 758 1530 2607 1762 2085 2173 2271 2126 1955 1648 1251 911 425 752 158 99 3 0 0 0 0 0 0 0 0 0 0
2 33 811 946 1206 1366 1454 1442 1418 1167 773 164 10 0 30 372 1105 1462 1266 602 598 705 1152 1496 1444 1288 1032 679 299 160 26 3 3 0 0 0 0 0 0 0 0 0 0
1 70 491 363 383 133 964 1026 1284 1274 1146 898 613 346 602 636 518 575 406 309 135 273 359 627 772 518 299 327 22 2 2 3 0 0 0 0 0 0 0 0 0 0 0
16 17 228 266 13 0 9 210 1182 1558 1490 1207 602 662 906 637 586 568 479 415 245 240 399 293 230 183 219 82 4 3 2 2 2 0 0 0 0 0 0 0 0 0 0
1 43 37 35 112 88 134 339 400 1109 1136 970 967 913 122 0 0 0 0 358 696 358 196 191 403 305 273 93 92 9 2 3 3 2 2 0 0 0 0 0 0 0 0
0 0 54 179 237 405 418 310 487 242 5 7 2 0 0 0 0 0 0 411 457 367 155 13 9 132 183 195 106 28 9 2 3 1 0 0 0 0 0 0 0 0 0
0 0 0 0 79 123 7 10 171 30 0 0 0 0 0 0 0 0 0 61 76 0 10 0 0 1 26 66 7 3 10 2 0 0 0 0 0 0 0 0 0 0 0
0 0 0 0 0 0 0 0 0 0 0 0 0 0 0 0 0 0 0 72 140 33 1 7 0 0 0 0 0 0 0 1 1 1 0 0 0 0 0 0 0 0 0
0 0 0 0 0 0 0 0 14 0 0 0 0 0 0 0 0 0 0 1 104 136 24 2 5 2 0 0 1 1 0 2 2 1 0 0 0 0 0 0 0 0 0
0 0 0 0 1 1 0 0 0 0 0 0 0 0 0 0 0 0 0 8 52 70 69 14 7 19 18 0 1 1 1 3 1 1 0 0 0 0 0 0 0 0 0
0 2 8 5 13 18 1 1 0 4 5 5 9 3 0 0 0 0 1 3 10 38 43 47 23 4 3 1 0 1 1 2 1 0 0 0 0 0 0 0 0 0 0
0 0 1 8 14 8 20 14 9 12 8 9 15 14 15 13 14 0 2 37 38 15 0 28 13 0 0 2 3 0 1 0 0 0 0 0 0 0 0 0 0 0 0
1 0 1 0 0 4 0 1 1 6 16 25 37 46 57 61 30 61 43 16 44 64 27 0 0 0 0 2 2 1 0 0 0 0 0 0 0 0 0 0 0 0 0
4 3 2 5 1 0 0 0 1 7 22 26 29 25 40 39 71 48 29 9 0 52 89 47 9 4 0 2 1 1 0 0 0 0 0 0 0 0 0 0 0 0 0
1 2 19 3 0 0 0 3 5 8 13 21 8 2 0 6 41 24 9 0 0 1 6 11 14 13 0 8 0 0 0 0 0 0 0 0 0 0 0 0 0 0 0
CIN
-157 -161 -139 -118 -112 -114 -94 -85 -78 -68 -76 -66 -102 -84 -88 -86 -96 -99 -48 -36 -40 -72 -36 -24 -33 -42 -40 -51 0 0 0 0 0 0 -6 -162 0 0 0 0 0 0 0
-165 -155 -142 -139 -127 -108 -91 -91 -82 -65 -70 -71 -78 -88 -86 -79 -82 -97 -93 -48 -73 -91 -72 -41 -49 -39 -42 -136 0 0 0 0 0 0 0 0 0 0 0 0 0 0 0
-200 -188 -168 -156 -132 -114 -102 -90 -89 -70 -64 -80 -80 -85 -84 -86 -83 -79 -90 -77 -67 -72 -67 -57 -55 -46 -49 -72 -137 0 0 0 0 0 0 0 0 0 0 0 0 0 0
-203 -180 -163 -149 -139 -122 -102 -79 -79 -100 -65 -74 -101 -93 -93 -85 -78 -69 -82 -74 -61 -60 -42 -38 -39 -45 -76 -100 -131 -189 0 0 0 0 0 0 0 0 0 0 0 0 0
-139 -178 -152 -143 -125 -100 -92 -78 -68 -72 -85 -55 -71 -92 -87 -79 -74 -73 -80 -76 -72 -66 -68 -47 -41 -49 -65 -77 -98 -169 -213 0 0 0 0 0 0 0 0 0 0 0 0
-103 -120 -168 -135 -118 -125 -112 -129 -72 -49 -48 -43 -33 -37 -46 -64 -64 -67 -59 -59 -61 -56 -53 -54 -37 -38 -38 -43 -54 -86 -184 0 0 0 0 0 -300 -31 0 0 0 0 0
-83 -136 -172 -145 -131 -172 -102 -118 -53 -49 -34 -30 -38 -19 -31 -49 -118 -134 -179 -99 -9 -40 -57 -59 -57 -42 -58 -53 -72 -90 -123 -160 0 0 0 0 0 -220 0 0 0 0 0
-317 -331 -312 -379 -207 0 -117 -167 -117 -84 -80 -68 -65 -84 -61 -91 -125 -240 -284 -452 -374 -260 -13 -34 -38 -55 -62 -71 -87 -109 -166 -239 0 0 0 0 0 0 0 0 0 0 0
-271 -217 -159 -3 -218 -90 -245 -315 -453 -327 -166 -159 -227 -234 -26 -334 -54 -432 -13 0 0 -57 0 -65 -47 -29 -70 -113 -94 -97 -156 -270 0 0 0 0 0 0 0 0 0 0 0
-253 -258 -336 -289 -384 -461 -125 0 -85 -384 -351 -356 -417 -527 0 0 0 0 -98 -113 -127 -36 -111 -335 -187 -22 -84 -170 -116 -135 -131 -229 0 0 0 0 0 0 0 0 0 0 0
-283 -225 -197 -346 -289 -324 -495 -156 0 -67 -291 -260 -195 -173 -357 -382 -205 -175 -152 -156 -74 -50 -89 -107 -85 -95 -71 -98 -148 -136 -155 -245 -48 0 0 0 0 0 0 0 0 0 0
-248 -168 -130 -118 -150 -236 -264 -134 -90 -73 -82 -88 -93 -150 -238 -214 -182 -80 -17 -39 -22 -8 -4 -26 -45 -75 -103 -124 -209 -108 -232 -221 0 0 0 0 0 0 0 0 0 0 0
-24 -72 -158 -158 -143 -146 -139 -94 -62 -79 -105 -194 -213 -33 -262 -206 -89 -66 -70 -164 -185 -153 -77 -27 -21 -45 -94 -142 -211 -253 -278 0 0 0 0 0 0 0 0 0 0 0 0
-31 -159 -157 -182 -156 -215 -160 -124 -143 -102 -90 -94 -99 -146 -129 -109 -186 -169 -162 -207 -307 -263 -216 -150 -107 -180 -225 -221 -132 0 0 0 0 0 0 0 0 0 0 0 0 0 0
-163 -246 -125 -147 -194 0 -275 -220 -133 -82 -45 -42 -74 -75 -59 -86 -105 -80 -84 -116 -185 -213 -167 -201 -237 -284 -258 -296 -75 0 0 0 0 0 0 0 0 0 0 0 0 0 0
-31 -192 -182 -191 -181 -175 -202 -154 -135 -61 -50 -57 -58 -70 -257 0 0 0 0 -84 -78 -176 -197 -185 -121 -158 -166 -261 -237 -259 0 0 0 0 0 0 0 0 0 0 0 0 0
0 0 -144 -125 -110 -88 -105 -164 -71 -113 -62 -5 -4 0 0 0 0 0 0 -105 -109 -133 -162 -236 -241 -192 -199 -208 -226 -287 -274 0 0 0 0 0 0 0 0 0 0 0 0
0 0 0 0 -224 -230 -218 -170 -99 -125 0 0 0 0 0 0 0 0 0 -206 -167 0 -165 0 0 -73 -278 -252 -235 -256 -128 0 0 0 0 0 0 0 0 0 0 0 0
0 0 0 0 0 0 0 0 0 0 0 0 0 0 0 0 0 0 0 -173 -105 -176 -64 -131 0 0 0 0 0 0 0 0 0 0 0 0 0 0 0 0 0 0 0
0 0 0 0 0 0 0 -20 -70 0 0 0 0 0 0 0 0 0 0 -35 -128 -108 -138 -56 -138 -131 0 0 0 0 0 0 0 0 0 0 0 0 0 0 0 0 0
0 0 0 0 -6 -8 0 0 0 0 0 0 0 0 0 0 0 0 0 -257 -154 -107 -106 -142 -154 -146 -140 0 0 0 0 -77 0 0 0 0 0 0 0 0 0 0 0
0 -9 -15 -11 -47 -77 -4 -115 0 -28 -49 -64 -80 -129 0 0 0 0 -43 -165 -143 -112 -136 -146 -155 -141 -130 0 -1 0 0 0 0 0 0 0 0 0 0 0 0 0 0
0 0 -9 -39 -38 -41 -30 -35 -31 -35 -46 -64 -80 -104 -133 -121 -110 0 -106 -94 -123 -161 -8 -229 -195 0 0 0 0 0 0 0 0 0 0 0 0 0 0 0 0 0 0
0 0 -96 -13 -2 -65 -18 -48 -22 -61 -63 -53 -61 -60 -56 -48 -63 -60 -73 -140 -130 -123 -195 0 -16 0 0 0 0 0 0 0 0 0 0 0 0 0 0 0 0 0 0
-22 -16 -55 -38 -89 -12 0 0 -19 -48 -37 -44 -42 -38 -45 -45 -45 -64 -89 -94 0 -104 -94 -131 -157 -130 -14 -44 -6 0 0 0 0 0 0 0 0 0 0 0 0 0 0
0 -6 -11 -11 -5 0 0 -58 -45 -47 -45 -47 -48 -31 0 -48 -38 -50 -79 0 0 -51 -76 -82 -112 -91 0 -79 0 -15 0 0 0 0 0 0 0 0 0 0 0 0 0
Wind_Speed
20 21 19 18 15 14 14 15 17 17 20 26 27 30 32 34 35 35 32 26 27 27 30 28 27 21 14 5 12 22 20 6 8 6 5 9 13 13 11 11 7 6 7
18 14 17 15 14 16 17 17 15 16 19 23 27 30 30 33 37 34 32 32 30 31 31 29 30 27 27 27 23 20 9 8 6 6 8 6 10 13 12 10 7 5 5
12 12 12 12 13 17 18 16 17 14 17 19 21 22 22 24 27 30 32 35 36 35 34 32 30 28 25 17 5 1 4 8 3 4 4 3 3 11 10 8 7 3 2
14 13 12 12 17 18 19 19 18 16 14 14 12 11 11 11 14 32 34 37 38 38 37 36 35 30 20 6 3 3 6 5 6 3 4 2 4 3 4 8 6 3 3
17 17 15 14 13 21 16 11 10 9 11 12 12 10 10 12 17 22 32 38 40 40 40 40 39 35 17 8 7 6 5 4 4 1 3 3 1 1 7 2 2 1 3
14 16 19 18 17 15 14 14 10 13 10 10 11 13 15 16 16 15 18 24 36 42 43 42 41 13 13 13 11 8 7 7 6 5 5 5 6 5 4 4 7 12 12
38 22 20 19 20 26 19 12 14 12 18 22 22 24 25 27 24 25 29 35 40 43 45 45 44 20 16 14 15 13 12 11 10 9 9 9 8 8 7 8 8 6 13
32 32 28 31 21 22 27 29 7 10 6 12 17 26 29 32 30 30 34 37 42 46 47 46 38 19 16 15 14 15 16 14 14 13 13 13 11 9 9 10 10 11 16
26 27 17 52 16 5 24 36 19 17 16 18 20 21 18 35 32 30 41 33 56 53 40 46 45 21 17 18 18 19 19 18 19 17 17 16 13 12 11 11 12 14 17
19 15 15 21 22 19 17 10 15 14 16 18 21 19 17 14 15 22 25 21 32 21 23 39 38 23 18 19 20 21 22 21 20 20 20 19 17 13 12 10 10 14 17
20 18 18 19 19 19 18 18 19 18 15 12 14 14 14 18 25 20 28 34 28 23 16 15 15 19 20 21 21 19 19 23 21 18 16 14 13 14 13 12 10 12 12
20 20 18 14 13 19 16 18 17 17 16 17 17 18 21 25 25 24 26 29 29 29 28 28 27 26 24 20 17 18 19 16 17 15 14 13 15 15 14 15 15 14 14
20 27 23 19 18 16 17 17 16 19 23 26 27 30 29 27 24 24 24 28 31 33 32 31 29 28 28 25 18 16 16 16 15 14 15 14 15 15 16 17 15 13 13
26 26 28 30 30 33 30 23 27 30 29 29 33 34 33 29 27 30 31 29 29 30 31 30 30 29 27 25 22 17 16 17 17 16 16 16 16 16 16 14 13 13 13
30 31 31 31 32 36 40 41 37 36 30 31 38 36 34 37 35 30 29 31 29 28 28 27 28 26 25 25 22 20 18 17 18 19 19 20 20 17 16 13 12 11 13
33 33 34 36 37 39 44 45 41 38 38 35 34 36 35 35 38 38 36 31 27 24 27 28 27 26 25 24 24 23 22 21 21 20 21 20 19 18 16 14 12 11 12
35 37 36 37 40 41 37 36 38 36 35 34 31 32 32 35 36 39 38 30 26 23 28 29 29 27 27 27 26 25 25 23 22 22 22 21 19 18 15 14 12 13 12
34 35 36 35 35 36 38 42 37 37 37 36 31 32 35 37 40 39 34 31 32 29 30 31 30 29 28 28 28 27 27 24 23 23 23 22 20 18 17 16 15 14 12
27 29 28 32 40 42 41 42 42 36 32 34 35 36 35 36 36 34 31 34 37 34 32 31 31 31 29 27 28 28 28 28 28 27 26 24 22 20 20 19 17 15 12
21 13 14 18 36 35 31 34 42 36 29 31 34 35 34 32 36 36 31 32 34 34 33 32 33 31 30 29 29 29 29 29 28 27 27 25 23 21 20 19 18 17 15
16 16 3 8 32 35 26 30 29 41 36 30 30 33 32 34 37 37 35 32 32 35 36 36 34 34 31 30 30 30 30 29 28 27 25 25 23 22 20 19 19 18 17
18 15 7 4 2 25 20 19 19 20 25 27 30 34 35 35 39 39 37 35 33 33 34 36 35 33 33 33 31 31 30 29 27 26 25 24 22 22 22 22 20 21 19
16 12 8 2 12 24 23 21 21 26 28 29 33 37 38 37 37 39 40 37 35 38 37 34 34 33 30 30 29 28 28 28 26 24 23 23 23 23 22 23 22 22 21
18 13 6 2 7 20 30 29 30 30 32 33 35 37 36 36 36 37 39 39 35 35 33 33 32 31 29 28 27 27 27 27 25 23 22 22 23 22 22 23 23 22 20
31 27 16 4 5 9 20 32 25 23 25 27 30 33 36 36 35 37 37 38 38 35 34 32 32 30 29 32 32 30 30 28 25 22 21 22 22 22 22 22 21 20 20
36 36 34 27 12 3 1 4 9 19 23 27 32 36 38 38 35 35 32 32 33 31 29 30 32 32 30 30 30 30 29 27 25 22 20 20 21 22 22 21 19 20 19
Wind_Direction
170 172 174 178 179 180 182 182 179 175 178 186 189 190 190 193 195 201 196 187 190 194 201 197 198 183 164 129 301 263 201 94 131 77 80 132 150 153 145 143 120 103 106
178 177 177 176 180 182 184 185 185 182 180 183 189 191 188 197 212 202 196 196 195 198 198 197 202 200 200 203 264 188 143 125 97 114 133 123 149 157 154 149 136 108 107
197 197 193 190 187 185 187 187 186 182 181 180 179 179 180 182 187 194 198 204 206 208 208 202 199 197 195 181 163 17 346 340 67 48 36 78 91 152 151 144 148 114 71
214 218 218 209 190 188 187 186 185 184 185 184 186 191 189 188 183 202 207 212 218 220 219 218 212 203 191 197 240 215 309 327 342 17 2 91 136 134 152 163 164 149 160
234 240 226 232 229 194 193 197 201 207 201 200 198 214 238 256 265 264 252 238 232 229 231 229 228 215 198 226 265 267 279 281 305 326 341 344 157 159 181 213 216 234 307
212 231 249 245 242 227 219 253 235 258 246 244 241 253 258 259 261 257 265 268 258 244 242 244 247 223 217 212 219 242 240 240 244 254 277 264 224 238 241 267 295 304 310
266 257 231 228 250 256 249 274 203 239 268 269 268 266 265 264 268 270 270 266 259 251 246 244 244 247 216 223 221 227 236 231 238 250 252 263 266 249 263 277 276 268 299
281 271 268 262 268 314 259 249 301 274 250 277 273 267 264 264 269 273 270 268 266 267 256 249 225 220 228 235 247 244 251 250 246 261 261 269 263 266 253 258 265 287 303
301 304 293 249 303 283 202 227 288 288 280 286 279 282 295 277 281 280 271 276 267 271 288 243 239 223 244 243 254 256 261 262 270 269 275 275 271 276 275 288 285 288 288
315 311 309 307 304 295 288 253 291 292 290 289 283 283 289 292 289 299 300 279 279 265 219 225 226 234 263 261 255 265 273 272 273 273 277 279 281 269 277 275 281 278 291
318 313 307 307 298 293 293 292 289 290 292 292 290 292 288 290 295 298 294 284 289 292 282 276 250 277 275 266 259 270 265 281 280 274 271 270 257 268 268 271 261 263 271
310 307 302 299 290 288 290 290 287 286 287 288 290 291 292 293 298 300 299 297 298 297 297 297 297 295 291 279 266 260 277 281 277 271 263 260 267 265 274 278 282 277 272
306 301 298 295 286 283 283 278 278 282 279 279 284 288 292 294 300 302 304 303 300 298 297 296 296 295 292 291 284 275 276 281 278 268 263 264 273 278 288 295 291 279 280
302 299 288 288 283 284 275 270 273 273 276 281 282 283 286 291 295 295 297 301 304 304 302 300 297 295 293 291 291 282 281 281 281 276 268 280 288 286 290 294 291 291 286
297 295 286 281 278 276 274 276 272 276 277 278 278 282 285 288 291 292 295 296 298 301 304 303 299 297 292 288 286 284 281 280 281 280 279 283 284 287 291 289 290 289 289
304 297 289 283 274 273 273 274 272 272 276 279 280 282 286 290 290 290 292 293 293 296 299 300 296 292 287 286 283 279 278 278 278 278 280 279 281 284 284 286 285 281 279
308 301 295 285 281 276 273 270 269 272 274 274 277 282 287 290 292 292 291 290 288 289 292 294 294 293 288 282 281 281 279 275 275 276 278 278 278 280 274 275 271 284 283
306 300 295 291 282 278 277 275 270 269 270 271 277 284 289 292 293 291 291 288 286 285 287 288 290 293 291 284 282 279 277 277 273 275 277 276 273 273 273 268 269 274 271
323 303 295 289 280 276 275 277 280 270 269 272 278 283 291 295 296 295 289 285 281 282 282 284 289 289 290 286 283 281 278 276 275 275 275 275 270 267 268 265 267 263 258
336 311 285 282 281 279 277 275 266 279 277 273 278 283 288 291 291 292 293 288 284 280 281 283 287 287 288 288 285 282 280 279 277 276 275 272 269 265 263 261 260 257 254
359 355 302 284 286 279 283 272 271 266 273 279 279 281 288 289 289 292 292 291 286 281 280 283 285 285 287 288 286 283 280 279 278 277 275 271 269 266 259 259 260 258 256
15 23 40 57 292 287 289 276 266 273 276 280 284 286 287 286 288 288 292 289 288 287 286 284 285 284 286 287 285 282 280 279 278 276 273 270 267 265 261 259 260 259 258
7 7 20 134 300 296 293 288 281 277 280 285 286 285 286 287 287 288 289 293 293 287 286 284 286 286 286 288 286 283 280 280 278 274 270 266 265 263 261 260 259 260 256
27 15 354 257 208 227 281 288 287 286 284 285 286 286 287 288 290 291 291 292 297 293 289 284 285 285 284 287 288 287 283 282 280 274 267 265 264 261 261 262 259 256 255
22 23 22 342 251 217 222 263 298 301 299 296 294 294 291 292 293 294 296 296 295 293 289 287 286 285 283 284 285 285 285 282 277 274 267 264 262 259 259 262 261 258 257
21 23 27 35 65 77 308 259 306 309 304 299 295 288 285 290 294 296 299 302 301 296 292 289 289 284 284 287 285 285 284 281 277 268 264 260 260 259 259 258 257 260 257